{"data":{"norad_id":55438,"intl_designator":"2023-014AZ","name":"STARLINK-5074","alt_names":[],"object_type":"PAYLOAD","status":"ACTIVE","operator":null,"country":"US","launch_date":"2023-01-31","launch_site_code":"AFWTR","launch_vehicle":null,"mission":null,"orbit_class":"UNKNOWN","rcs_meters":null,"size_class":null,"mass_kg":null,"dimensions":null,"purposes":["comms"],"wikipedia_slug":null,"has_3d_model":false,"image_url":null,"decayed_at":null,"tle_current":{"epoch":"2026-05-25T05:17:13.335936Z","epoch_age_seconds":55977,"freshness":"FRESH","line1":"1 55438U 23014AZ  26145.22029324  .00000004  00000+0  81657-5 0  9992","line2":"2 55438  69.9996 231.3180 0003448 271.4301  88.6463 14.98327584183525","mean_motion":14.98327584,"eccentricity":0.0003448,"inclination_deg":69.9996,"raan_deg":231.318,"arg_perigee_deg":271.4301,"mean_anomaly_deg":88.6463,"bstar":8.1657e-6,"rev_number":18352,"period_min":96.107154094815,"perigee_km":569.66693315026,"apogee_km":574.45979132006,"semimajor_km":6950.2003622352,"source":"CELESTRAK","updated_at":"2026-05-25T13:38:17.801514Z"}}}